• Join FlightAware (Why Join?)
  • Login
  • US Flag 
08:21AM EDT


 

Airport Tracker/Info


-or-


 

Live Flight TrackerFlight Track Log ✈ EJA929 ✈ 18-May-2013 ✈ KVKS - KHOU

Flight Track Log - Related Links

Times and Time Zones

All times are in EDT time to prevent confusion due to time zone crossing. See the EJA929 flight status page for this flight to view local times or setup timezone preferences in your user account.

Time Position Orientation Groundspeed Altitude Reporting Facility
EDT Latitude Longitude Course Direction KTS MPH feet Rate Location/Type
03:31PM 32.1506 -91.0139 230° Southwest 223 257 7,700  Level Houston Center
03:32PM 32.1103 -91.0903 238° Southwest 275 316 11,100 2,880 Climbing Houston Center
03:33PM 32.0539 -91.1831 234° Southwest 334 384 13,700 2,100 Climbing Houston Center
03:34PM 31.9964 -91.2808 235° Southwest 361 415 15,500 1,800 Climbing Houston Center
03:35PM 31.9375 -91.3800 235° Southwest 369 425 17,500 2,040 Climbing Houston Center
03:36PM 31.8885 -91.4594 230° Southwest  Level FlightAware Approximate
03:36PM 31.8639 -91.5019 235° Southwest 379 436 19,800  Level Houston Center
03:37PM 31.8019 -91.6053 235° Southwest 384 442 21,800 1,980 Climbing Houston Center
03:38PM 31.7394 -91.7081 234° Southwest 387 445 23,900 2,040 Climbing Houston Center
03:39PM 31.6775 -91.8117 235° Southwest 389 448 26,100 1,920 Climbing Houston Center
03:40PM 31.6147 -91.9164 235° Southwest 392 451 27,900 900 Climbing Houston Center
03:41PM 31.5422 -92.0361 235° Southwest 425 489 28,000  Climbing Houston Center
03:42PM 31.4656 -92.1583 234° Southwest 463 533 28,000  Level Houston Center
03:43PM 31.3875 -92.2864 234° Southwest 482 555 28,000  Level Houston Center
03:44PM 31.3083 -92.4161 234° Southwest 488 562 28,000  Level Houston Center
03:45PM 31.2344 -92.5497 237° Southwest 493 567 28,000  Level Houston Center
03:46PM 31.1739 -92.7219 248° West 483 556 28,000  Level Houston Center
03:47PM 31.1211 -92.8631 246° West 479 551 28,000  Level Houston Center
03:48PM 31.0694 -93.0044 247° West 478 550 28,000  Level Houston Center
03:49PM 31.0172 -93.1461 247° West 477 549 28,000  Level Houston Center
03:50PM 30.9678 -93.2775 246° West 455 524 28,000  Level Houston Center
03:51PM 30.9214 -93.4025 247° West 432 497 28,000  Level Houston Center
03:52PM 30.8639 -93.5583 247° West 439 505 28,000  Level Houston Center
03:53PM 30.8144 -93.6894 246° West 445 512 28,000  Level Houston Center
03:54PM 30.7642 -93.8181 246° West 442 509 28,000  Level Houston Center
03:55PM 30.7169 -93.9447 247° West 433 498 28,000 -900 Level Houston Center
03:56PM 30.6692 -94.0683 246° West 425 489 26,200 -2,160 Descending Houston Center
03:57PM 30.6372 -94.1486 245° Southwest 429 494 24,800 -2,280 Descending Houston Center
03:57PM 30.6211 -94.1939 248° West 427 491 23,900 -1,920 Descending Houston Center
03:58PM 30.5750 -94.3136 246° West 410 472 21,800 -2,160 Descending Houston Center
03:59PM 30.5225 -94.4492 246° West 388 447 19,500 -2,280 Descending Houston Center
04:00PM 30.5100 -94.4789 244° Southwest 384 442 18,900 -1,800 Descending Houston Center
04:00PM 30.4722 -94.5514 239° Southwest 375 432 17,700 -1,800 Descending Houston Center
04:02PM 30.3908 -94.6786 233° Southwest 366 421 15,300 -1,920 Descending Houston Center
04:03PM 30.3325 -94.7708 234° Southwest 363 418 13,400 -1,560 Descending Houston Center
04:04PM 30.2700 -94.8658 233° Southwest 342 394 12,200 -1,140 Descending Houston Center
04:04PM 30.2347 -94.9211 234° Southwest 341 392 11,400 -1,140 Descending Houston Center
04:06PM 30.1792 -95.0058 233° Southwest 334 384 10,200 -720 Descending Houston Center
04:07PM 30.1017 -95.0858 222° Southwest 310 357 10,000 -120 Descending Houston Center
04:08PM 30.0392 -95.1125 200° South 258 297 10,000 -240 Level Houston Center
04:09PM 29.9811 -95.1364 200° South 231 266 9,600 -780 Descending Houston Center
04:10PM 29.9097 -95.1667 200° South 216 249 8,300 -1,020 Descending Houston Center
04:11PM 29.8681 -95.1856 201° Southwest 220 253 7,600 -900 Descending Houston Center
04:12PM 29.8128 -95.2094 201° Southwest 216 249 6,600 -840 Descending Houston Center
04:13PM 29.7528 -95.2361 201° Southwest 199 229 6,000 -300 Descending Houston Center
04:14PM 29.7039 -95.2558 199° South 190 219 6,000  Level Houston Center
04:15PM 29.6572 -95.2792 203° Southwest 187 215 6,000 -120 Level Houston Center
04:16PM 29.6400 -95.3375 251° West 193 222 5,800 -720 Descending Houston Center
04:17PM 29.6528 -95.4097 282° West 219 252 4,600 -1,140 Descending Houston Center
04:18PM 29.6967 -95.4292 339° North 229 264 3,500 -1,140 Descending Houston Center
04:19PM 29.7247 -95.3772 58° Northeast 221 254 2,400 -1,080 Descending Houston Center
04:20PM 29.6961 -95.3244 122° Southeast 186 214 1,400 -900 Descending Houston Center
04:21PM 29.6775 -95.2897 122° Southeast 151 174 600 -660 Descending Houston Center
04:22PM 29.6431 -95.2831 170° South 132 152 100 -540 Descending Houston Center